Oakland, CA

11:46 AM PDT on May 28, 2017 (GMT -0700)
Metro Oakland International

Weather History for KOAK - February, 2015

Change the Weather History Date:

Tuesday, February 24, 2015

  Actual Average Record
Temperature  
Mean Temperature 50 °F 53 °F  
Max Temperature 64 °F 61 °F 74 °F (1954)
Min Temperature 36 °F 45 °F 36 °F (1960)
Degree Days  
Heating Degree Days 15 12  
Month to date heating degree days 206 314  
Since 1 July heating degree days 1268 1973  
Cooling Degree Days 0 0  
Month to date cooling degree days 0 0  
Year to date cooling degree days 0 0  
Growing Degree Days 1 (Base 50)    
Moisture  
Dew Point 37 °F    
Average Humidity 58    
Maximum Humidity 89    
Minimum Humidity 27    
Precipitation  
Precipitation 0.00 in 0.16 in 0.84 in (1958)
Month to date precipitation 1.93 3.34  
Year to date precipitation 1.93 7.33  
Sea Level Pressure  
Sea Level Pressure 30.31 in    
Wind  
Wind Speed 5 mph (WSW)    
Max Wind Speed 12 mph    
Max Gust Speed 17 mph    
Visibility 10 miles    
Events Fog    
T = Trace of Precipitation, MM = Missing Value Source: NWS Daily Summary

Daily Weather History Graph

Daily Weather History Graph

Search for Another Location

Airport or City:

Trip Planner

Search our weather history database for the weather conditions in past years. The results will help you decide how hot, cold, wet, or windy it might be!

Date:

Astronomy

Feb. 24, 2015 Rise Set
Actual Time 6:47 AM PST 5:57 PM PST
Civil Twilight 6:20 AM PST 6:23 PM PST
Nautical Twilight 5:50 AM PST 6:54 PM PST
Astronomical Twilight 5:20 AM PST 7:24 PM PST
Moon 10:33 AM PST (2/24) No Moon Set
Length of Visible Light 12h 02m
Length of Day
11h 10m
Waxing Crescent, 41% of the Moon is Illuminated
Feb 24
Waxing Crescent
Feb 25
First Quarter
Mar 5
Full
Mar 13
Last Quarter
Mar 20
New

Hourly Weather History & Observations

Time (PST) Temp. Windchill Dew Point Humidity Pressure Visibility Wind Dir Wind Speed Gust Speed Precip Events Conditions
12:53 AM 46.9 °F - 28.0 °F 48% 30.25 in 10.0 mi North 4.6 mph - N/A   Clear
1:53 AM 42.1 °F 37.7 °F 28.9 °F 60% 30.26 in 10.0 mi NNE 6.9 mph - N/A   Clear
2:53 AM 43.0 °F - 24.1 °F 47% 30.27 in 10.0 mi Calm Calm - N/A   Clear
3:53 AM 39.9 °F 35.8 °F 25.0 °F 55% 30.30 in 10.0 mi NE 5.8 mph - N/A   Clear
4:53 AM 44.1 °F - 23.0 °F 43% 30.31 in 10.0 mi Calm Calm - N/A   Clear
5:53 AM 41.0 °F 39.0 °F 24.1 °F 51% 30.32 in 10.0 mi ENE 3.5 mph - N/A   Clear
6:53 AM 41.0 °F 39.0 °F 21.9 °F 47% 30.34 in 10.0 mi East 3.5 mph - N/A   Partly Cloudy
7:53 AM 45.0 °F - 30.9 °F 58% 30.36 in 10.0 mi Calm Calm - N/A   Partly Cloudy
8:53 AM 51.1 °F - 33.1 °F 50% 30.37 in 10.0 mi ESE 5.8 mph - N/A   Partly Cloudy
9:53 AM 55.0 °F - 28.0 °F 35% 30.36 in 10.0 mi South 4.6 mph - N/A   Partly Cloudy
10:53 AM 55.9 °F - 36.0 °F 47% 30.36 in 10.0 mi SSW 4.6 mph - N/A   Clear
11:53 AM 57.9 °F - 34.0 °F 41% 30.35 in 10.0 mi SSW 5.8 mph - N/A   Partly Cloudy
12:53 PM 62.1 °F - 28.0 °F 28% 30.31 in 10.0 mi SSW 3.5 mph - N/A   Partly Cloudy
1:53 PM 62.1 °F - 34.0 °F 35% 30.30 in 10.0 mi SSW 6.9 mph - N/A   Partly Cloudy
2:53 PM 63.0 °F - 44.1 °F 50% 30.29 in 10.0 mi West 11.5 mph - N/A   Partly Cloudy
3:53 PM 62.1 °F - 42.1 °F 48% 30.28 in 10.0 mi WSW 8.1 mph - N/A   Partly Cloudy
4:53 PM 62.1 °F - 44.1 °F 52% 30.27 in 10.0 mi West 9.2 mph - N/A   Partly Cloudy
5:53 PM 59.0 °F - 44.1 °F 58% 30.27 in 10.0 mi West 10.4 mph - N/A   Mostly Cloudy
6:53 PM 57.0 °F - 45.0 °F 64% 30.28 in 10.0 mi West 9.2 mph - N/A   Scattered Clouds
7:53 PM 55.9 °F - 48.9 °F 77% 30.29 in 10.0 mi West 8.1 mph - N/A   Scattered Clouds
8:53 PM 55.0 °F - 48.9 °F 80% 30.31 in 10.0 mi West 8.1 mph - N/A   Partly Cloudy
9:53 PM 53.1 °F - 48.0 °F 83% 30.32 in 10.0 mi Calm Calm - N/A   Partly Cloudy
10:53 PM 52.0 °F - 48.0 °F 86% 30.31 in 10.0 mi Calm Calm - N/A Fog Shallow Fog
11:06 PM 51.8 °F - 48.2 °F 88% 30.31 in 10.0 mi Calm Calm - N/A   Mostly Cloudy
11:23 PM 50.0 °F - 46.4 °F 87% 30.31 in 10.0 mi Calm Calm - N/A   Scattered Clouds
11:53 PM 48.9 °F - 45.0 °F 86% 30.30 in 10.0 mi Calm Calm - N/A   Scattered Clouds